| time (UTC) | temp F | wind direction | speed knots | gust knots | rain 1hr in | rain 24hr in | rain mn in | humidity % | barometer mb |
| 20260906214829 | 87 | 155 | 2.6 | 0.0 | 0.00 | 0.00 | 0.00 | 29 | 1021.4 |
| 20260906213319 | 86 | 167 | 2.6 | 0.0 | 0.00 | 0.00 | 0.00 | 29 | 1021.5 |
| 20260906211822 | 87 | 134 | 1.7 | 0.0 | 0.00 | 0.00 | 0.00 | 29 | 1021.8 |
| 20260906210324 | 86 | 169 | 2.6 | 0.0 | 0.00 | 0.00 | 0.00 | 29 | 1021.8 |
| 20260906204840 | 87 | 161 | 1.7 | 0.0 | 0.00 | 0.00 | 0.00 | 28 | 1021.8 |
| 20260906203330 | 87 | 133 | 2.6 | 0.0 | 0.00 | 0.00 | 0.00 | 28 | 1021.9 |
| 20260906201828 | 85 | 138 | 4.3 | 0.0 | 0.00 | 0.00 | 0.00 | 33 | 1022.0 |
| 20260906200343 | 85 | 142 | 2.6 | 0.0 | 0.00 | 0.00 | 0.00 | 34 | 1022.1 |
| 20260906194825 | 85 | 157 | 2.6 | 0.0 | 0.00 | 0.00 | 0.00 | 34 | 1022.3 |
| 20260906193326 | 84 | 143 | 1.7 | 0.0 | 0.00 | 0.00 | 0.00 | 36 | 1022.5 |
| 20260906191838 | 83 | 173 | 4.3 | 0.0 | 0.00 | 0.00 | 0.00 | 38 | 1022.7 |
| 20260906190323 | 83 | 141 | 4.3 | 0.0 | 0.00 | 0.00 | 0.00 | 38 | 1022.8 |
| 20260906184818 | 83 | 154 | 2.6 | 0.0 | 0.00 | 0.00 | 0.00 | 39 | 1023.0 |
| 20260906183333 | 82 | 121 | 2.6 | 0.0 | 0.00 | 0.00 | 0.00 | 39 | 1023.4 |
| 20260906181822 | 81 | 123 | 4.3 | 0.0 | 0.00 | 0.00 | 0.00 | 41 | 1023.7 |
| 20260906180318 | 81 | 144 | 3.5 | 0.0 | 0.00 | 0.00 | 0.00 | 39 | 1023.9 |
| 20260906174818 | 81 | 133 | 3.5 | 0.0 | 0.00 | 0.00 | 0.00 | 39 | 1024.1 |
| 20260906173330 | 82 | 138 | 3.5 | 0.0 | 0.00 | 0.00 | 0.00 | 38 | 1024.4 |
| 20260906171824 | 82 | 148 | 1.7 | 0.0 | 0.00 | 0.00 | 0.00 | 37 | 1024.5 |
| 20260906170315 | 82 | 130 | 3.5 | 0.0 | 0.00 | 0.00 | 0.00 | 35 | 1024.7 |
| 20260906164848 | 81 | 136 | 1.7 | 0.0 | 0.00 | 0.00 | 0.00 | 31 | 1024.7 |
| 20260906163318 | 80 | 132 | 2.6 | 0.0 | 0.00 | 0.00 | 0.00 | 30 | 1024.8 |
| 20260906161853 | 80 | 99 | 0.0 | 0.0 | 0.00 | 0.00 | 0.00 | 33 | 1024.9 |
| 20260906160328 | 77 | 40 | 0.0 | 0.0 | 0.00 | 0.00 | 0.00 | 31 | 1024.9 |
| 20260906154815 | 74 | 40 | 0.0 | 0.0 | 0.00 | 0.00 | 0.00 | 37 | 1024.8 |
| 20260906153328 | 71 | 39 | 0.0 | 0.0 | 0.00 | 0.00 | 0.00 | 41 | 1024.8 |
| 20260906151819 | 69 | 40 | 0.0 | 0.0 | 0.00 | 0.00 | 0.00 | 45 | 1024.8 |
| 20260906150322 | 66 | 51 | 0.0 | 0.0 | 0.00 | 0.00 | 0.00 | 49 | 1025.1 |
| 20260906144817 | 66 | 53 | 0.0 | 0.0 | 0.00 | 0.00 | 0.00 | 50 | 1025.1 |
| 20260906143322 | 64 | 53 | 0.0 | 0.0 | 0.00 | 0.00 | 0.00 | 56 | 1025.0 |
| 20260906141825 | 62 | 55 | 0.0 | 0.0 | 0.00 | 0.00 | 0.00 | 61 | 1024.9 |
| 20260906140320 | 60 | 55 | 0.0 | 0.0 | 0.00 | 0.00 | 0.00 | 62 | 1024.8 |
| 20260906134822 | 59 | 59 | 0.0 | 0.0 | 0.00 | 0.00 | 0.00 | 61 | 1025.0 |
| 20260906133336 | 59 | 46 | 0.0 | 0.0 | 0.00 | 0.00 | 0.00 | 66 | 1024.9 |
| 20260906131817 | 58 | 18 | 0.0 | 0.0 | 0.00 | 0.00 | 0.00 | 69 | 1024.8 |
| 20260906130317 | 58 | 59 | 1.7 | 0.0 | 0.00 | 0.00 | 0.00 | 71 | 1024.6 |
| 20260906124832 | 57 | 48 | 0.9 | 0.0 | 0.00 | 0.00 | 0.00 | 68 | 1024.5 |
| 20260906123315 | 57 | 39 | 0.0 | 0.0 | 0.00 | 0.00 | 0.00 | 59 | 1024.8 |
| 20260906121829 | 57 | 40 | 0.0 | 0.0 | 0.00 | 0.00 | 0.00 | 61 | 1024.7 |
| 20260906120316 | 58 | 39 | 0.0 | 0.0 | 0.00 | 0.00 | 0.00 | 55 | 1024.6 |
| 20260906114826 | 59 | 42 | 0.0 | 0.0 | 0.00 | 0.00 | 0.00 | 56 | 1024.5 |
| 20260906113325 | 59 | 42 | 0.0 | 0.0 | 0.00 | 0.00 | 0.00 | 55 | 1024.5 |
| 20260906111816 | 59 | 42 | 0.0 | 0.0 | 0.00 | 0.00 | 0.00 | 54 | 1024.5 |
| 20260906110334 | 60 | 37 | 0.0 | 0.0 | 0.00 | 0.00 | 0.00 | 53 | 1024.3 |
| 20260906104838 | 59 | 37 | 0.0 | 0.0 | 0.00 | 0.00 | 0.00 | 53 | 1024.1 |
| 20260906103331 | 60 | 44 | 0.9 | 0.0 | 0.00 | 0.00 | 0.00 | 52 | 1024.0 |
| 20260906101829 | 59 | 34 | 1.7 | 0.0 | 0.00 | 0.00 | 0.00 | 54 | 1023.8 |
| 20260906100318 | 60 | 34 | 1.7 | 0.0 | 0.00 | 0.00 | 0.00 | 53 | 1024.0 |
| 20260906094815 | 60 | 30 | 0.9 | 0.0 | 0.00 | 0.00 | 0.00 | 53 | 1024.0 |
| 20260906093334 | 60 | 46 | 0.0 | 0.0 | 0.00 | 0.00 | 0.00 | 54 | 1023.9 |
| 20260906091813 | 60 | 30 | 1.7 | 0.0 | 0.00 | 0.00 | 0.00 | 52 | 1023.9 |
| 20260906090329 | 60 | 17 | 1.7 | 0.0 | 0.00 | 0.00 | 0.00 | 53 | 1023.6 |
| 20260906084828 | 60 | 10 | 1.7 | 0.0 | 0.00 | 0.00 | 0.00 | 52 | 1023.6 |
| 20260906083351 | 61 | 36 | 0.0 | 0.0 | 0.00 | 0.00 | 0.00 | 53 | 1023.6 |
| 20260906081827 | 60 | 42 | 1.7 | 0.0 | 0.00 | 0.00 | 0.00 | 52 | 1024.6 |
| 20260906080324 | 61 | 46 | 0.0 | 0.0 | 0.00 | 0.00 | 0.00 | 52 | 1024.7 |
| 20260906074824 | 61 | 40 | 0.0 | 0.0 | 0.00 | 0.00 | 0.00 | 51 | 1024.9 |
| 20260906073336 | 62 | 40 | 0.0 | 0.0 | 0.00 | 0.00 | 0.00 | 50 | 1024.9 |
| 20260906071819 | 63 | 40 | 0.0 | 0.0 | 0.00 | 0.00 | 0.00 | 50 | 1024.8 |
| 20260906070316 | 63 | 38 | 0.0 | 0.0 | 0.00 | 0.00 | 0.00 | 48 | 1024.8 |
| 20260906064830 | 63 | 38 | 0.0 | 0.0 | 0.00 | 0.00 | 0.00 | 47 | 1024.8 |
| 20260906063339 | 64 | 38 | 0.0 | 0.0 | 0.00 | 0.00 | 0.00 | 46 | 1024.8 |
| 20260906061812 | 65 | 38 | 0.0 | 0.0 | 0.00 | 0.00 | 0.00 | 44 | 1024.7 |
| 20260906060323 | 66 | 38 | 0.0 | 0.0 | 0.00 | 0.00 | 0.00 | 44 | 1024.4 |
| 20260906054811 | 65 | 49 | 1.7 | 0.0 | 0.00 | 0.00 | 0.00 | 45 | 1024.2 |
| 20260906053325 | 64 | 33 | 0.0 | 0.0 | 0.00 | 0.00 | 0.00 | 46 | 1024.2 |
| 20260906051816 | 65 | 21 | 0.9 | 0.0 | 0.00 | 0.00 | 0.00 | 45 | 1024.1 |
| 20260906050308 | 66 | 42 | 0.0 | 0.0 | 0.00 | 0.00 | 0.00 | 44 | 1024.1 |
| 20260906044825 | 66 | 62 | 0.0 | 0.0 | 0.00 | 0.00 | 0.00 | 46 | 1024.0 |
| 20260906043320 | 67 | 31 | 0.9 | 0.0 | 0.00 | 0.00 | 0.00 | 44 | 1023.7 |
| 20260906041811 | 67 | 20 | 1.7 | 0.0 | 0.00 | 0.00 | 0.00 | 43 | 1023.6 |
| 20260906040311 | 67 | 27 | 1.7 | 0.0 | 0.00 | 0.00 | 0.00 | 43 | 1023.8 |
| 20260906034845 | 68 | 17 | 1.7 | 0.0 | 0.00 | 0.00 | 0.00 | 43 | 1023.8 |
| 20260906033319 | 68 | 24 | 0.9 | 0.0 | 0.00 | 0.00 | 0.00 | 44 | 1023.8 |
| 20260906031816 | 68 | 340 | 2.6 | 0.0 | 0.00 | 0.00 | 0.00 | 44 | 1023.7 |
| 20260906030312 | 69 | 28 | 2.6 | 0.0 | 0.00 | 0.00 | 0.00 | 44 | 1023.4 |
| 20260906024823 | 69 | 5 | 1.7 | 0.0 | 0.00 | 0.00 | 0.00 | 43 | 1023.3 |
| 20260906023316 | 69 | 28 | 0.9 | 0.0 | 0.00 | 0.00 | 0.00 | 43 | 1024.0 |
| 20260906021813 | 69 | 42 | 0.9 | 0.0 | 0.00 | 0.00 | 0.00 | 44 | 1023.7 |
| 20260906020324 | 70 | 40 | 0.9 | 0.0 | 0.00 | 0.00 | 0.00 | 43 | 1023.6 |
| 20260906014821 | 70 | 19 | 2.6 | 0.0 | 0.00 | 0.00 | 0.00 | 42 | 1023.6 |
| 20260906013315 | 71 | 18 | 0.9 | 0.0 | 0.00 | 0.00 | 0.00 | 41 | 1023.6 |
| 20260906011820 | 71 | 28 | 1.7 | 0.0 | 0.00 | 0.00 | 0.00 | 42 | 1023.7 |
| 20260906010319 | 72 | 5 | 2.6 | 0.0 | 0.00 | 0.00 | 0.00 | 43 | 1023.7 |
| 20260906004842 | 73 | 5 | 0.9 | 0.0 | 0.00 | 0.00 | 0.00 | 41 | 1023.8 |
| 20260906003340 | 73 | 40 | 0.0 | 0.0 | 0.00 | 0.00 | 0.00 | 39 | 1024.0 |
| 20260906001833 | 71 | 28 | 0.9 | 0.0 | 0.00 | 0.00 | 0.00 | 44 | 1024.1 |
| 20260906000315 | 74 | 281 | 5.2 | 0.0 | 0.00 | 0.00 | 0.00 | 40 | 1024.7 |
| 20260905234811 | 76 | 15 | 4.3 | 0.0 | 0.00 | 0.00 | 0.00 | 32 | 1024.6 |
| 20260905233332 | 77 | 355 | 2.6 | 0.0 | 0.00 | 0.00 | 0.00 | 30 | 1024.4 |
| 20260905231825 | 78 | 276 | 0.0 | 0.0 | 0.00 | 0.00 | 0.00 | 29 | 1024.3 |
| 20260905230326 | 81 | 175 | 0.9 | 0.0 | 0.00 | 0.00 | 0.00 | 25 | 1023.5 |
| 20260905224821 | 81 | 111 | 0.0 | 0.0 | 0.00 | 0.00 | 0.00 | 23 | 1023.0 |
| 20260905223346 | 82 | 115 | 0.9 | 0.0 | 0.00 | 0.00 | 0.00 | 23 | 1022.7 |
| 20260905221813 | 83 | 126 | 1.7 | 0.0 | 0.00 | 0.00 | 0.00 | 22 | 1022.6 |
| 20260905220328 | 83 | 108 | 3.5 | 0.0 | 0.00 | 0.00 | 0.00 | 22 | 1022.5 |